軌道要素
Epoch 1988 Feb. 9.0 TT = JDT 2447200.5
T 1988 Feb. 10.00985 TT MPCW
q 3.0229371 (2000.0) P Q
n 0.11120907 Peri. 319.38356 -0.57652715 +0.79666921
a 4.2826170 Node 274.64562 -0.69457563 -0.59482483
e 0.2941379 Incl. 10.49077 -0.43032678 -0.10724546
P 8.86
From 254 observations 2005 Mar. 11-2016 Aug. 4, mean residual 0".5.
|